Location: Arbon
(43.0005°N, 0.7472°E)
Time: 22:00:55
(UTC+00:00)

Altair - Pass Details

Date: 26 November 2020
Orbit: 1501 x 1682 km, 47.2° (Epoch: 26 January)

Event Time Altitude Azimuth Distance (km) Brightness Sun altitude
Rises 19:22:39 0° 201° (SSW) 4,739 10.3 -31.9°
Reaches altitude 10° 19:26:09 10° 192° (SSW) 3,732 9.6 -32.6°
Enters shadow 19:31:00 27° 166° (SSE) 2,626 8.5 -33.5°
Maximum altitude 19:34:08 33° 134° (SE) 2,357 - -34.0°
Drops below altitude 10° 19:41:58 10° 75° (ENE) 3,662 - -35.5°
Sets 19:45:20 0° 66° (ENE) 4,639 - -36.1°
